DMSP 5D-2 F11 DEB, 28329

Orbit data source: Space-Track

DMSP 5D-2 F11 DEB, 28329 is space debris in SSO originally from a launch on Thu, 28 Nov 1991 UTC launched from the Air Force Western Test Range (AFWTR). Debris objects in space refer to the collection of defunct objects orbiting the Earth. Examples of debris include non-operational satellites, rocket bodies, and fragments generated from explosions, collisions, or faulty payload assembly.

Loading next visibility...
Identifier
28329, 1991-082AS
Orbit
SSO
Country
Flag of USUS
Related business
Manufacturer
Unknown
Mission
Spacecraft
Bus & Motor
Unknown
Mass
Unknown
Launch date (UTC)
1991-11-28 (34 years ago)
Launch vehicle
Unknown
Launch site
Air Force Western Test Range (AFWTR)
Object type
Payload
Rocket body
Debris
Shape & HBR
Unknown shape, 0.1 m
Radar Cross Section
Small (<0.1 m²)

Expand to show TLE details & history
Last TLE update: 2 days ago

TLE from 2 days ago
0 DMSP 5D-2 F11 DEB
1 28329U 91082AS  26119.50776409  .00004353  00000-0  14895-2 0  9995
2 28329  98.9020 203.6465 0065984 358.6904   1.4097 14.35572094130934
Epoch: 2026-04-29T12:11Z
TLE epoch observation values (Epoch: 2026-04-29T12:11:10.817Z)
Latitude
-0.00007°
Longitude
163.38372°
Altitude
728.913 km
Speed
7.515 km/s
True Right ascension
13h 34m 35s
True Declination
0° 00' 00"
Sunlit
Object was in full shadow at epoch
Visualization orbit readout
Latitude
Unknown
Longitude
Unknown
Altitude
Unknown
Speed
Unknown
Apparent Right ascension
Unknown
Apparent Declination
Unknown
Sunlit
N/A
Visualization observer readout
Local Sidereal Time
21:52:24
Azimuth
Unknown
Elevation
Unknown
Doppler factor
Unknown
Orbital elements
Apogee altitude
817.481 km
Perigee altitude
723.145 km
Semi-major axis
7,148.45 km
Eccentricity
0.0066
Inclination
98.902°
RAAN
203.6465°
Arg. of periapsis
358.6904°
True anomaly
1.42846°
Mean anomaly
1.4097°
Eccentric anomaly
1.41906°
Mean motion
3.59108 °/min
Orbital period
100.25 mins
BSTAR
0.0014895
Loading maneuver chart data...
Computing Atmospheric mass density...
Loading historical data...
Loading historical data...
Loading historical data...
Loading historical data...
Loading historical data...
Loading historical data...
Loading historical data...

Documentation

Showing up to 5 results
|